Fergus Falls, MN

9:02 PM CST on December 08, 2019 (GMT -0600)
Fergus Falls Municipal-Mickelson

Weather History for KFFM - October, 2019

Change the Weather History Date:

Wednesday, October 30, 2019

  Actual Average Record
Temperature  
Mean Temperature 22 °F -  
Max Temperature 26 °F 49 °F 76 °F (1950)
Min Temperature 19 °F 31 °F 10 °F (1991)
Degree Days  
Heating Degree Days 42    
Moisture  
Dew Point 16 °F    
Average Humidity 68    
Maximum Humidity 86    
Minimum Humidity 59    
Precipitation  
Precipitation 0.00 in - - ()
Sea Level Pressure  
Sea Level Pressure 30.28 in    
Wind  
Wind Speed 8 mph ()    
Max Wind Speed 14 mph    
Max Gust Speed 21 mph    
Visibility 10.0 miles    
Events Snow    
Averages and records for this station are not official NWS values.
T = Trace of Precipitation, MM = Missing Value Source: Averaged Metar Reports

Daily Weather History Graph

Daily Weather History Graph

Search for Another Location

Airport or City:

Astronomy

Oct. 30, 2019 Rise Set
Actual Time 8:02 AM CDT 6:13 PM CDT
Civil Twilight 7:31 AM CDT 6:44 PM CDT
Nautical Twilight 6:56 AM CDT 7:19 PM CDT
Astronomical Twilight 6:21 AM CDT 7:54 PM CDT
Moon 10:54 AM CDT (10/30) 8:13 PM CDT (10/30)
Length of Visible Light 11h 13m
Length of Day
10h 10m
Waxing Crescent, 9% of the Moon is Illuminated
Oct 30
Waxing Crescent
Nov 4
First Quarter
Nov 12
Full
Nov 19
Last Quarter
Nov 26
New

Hourly Weather History & Observations

Time (CDT) Temp. Windchill Dew Point Humidity Pressure Visibility Wind Dir Wind Speed Gust Speed Precip Events Conditions
12:15 AM 24.8 °F 14.0 °F 12.2 °F 59% 30.31 in 10.0 mi WNW 11.5 mph 20.7 mph N/A   Mostly Cloudy
12:35 AM 24.8 °F 16.1 °F 12.2 °F 59% 30.31 in 10.0 mi West 8.1 mph - N/A   Mostly Cloudy
12:36 AM 24.8 °F 16.1 °F 12.2 °F 59% 30.32 in 10.0 mi West 8.1 mph - N/A   Overcast
12:55 AM 24.8 °F 17.9 °F 14.0 °F 64% 30.32 in 10.0 mi West 5.8 mph - N/A   Overcast
12:56 AM 24.8 °F 17.9 °F 14.0 °F 64% 30.32 in 10.0 mi West 5.8 mph - N/A   Overcast
1:18 AM 24.8 °F 15.3 °F 14.0 °F 64% 30.31 in 10.0 mi West 9.2 mph - N/A   Overcast
1:37 AM 26.6 °F 17.5 °F 14.0 °F 59% 30.31 in 10.0 mi West 9.2 mph - N/A   Overcast
1:55 AM 26.6 °F 18.2 °F 14.0 °F 59% 30.31 in 10.0 mi West 8.1 mph - N/A   Overcast
1:56 AM 26.6 °F 18.2 °F 14.0 °F 59% 30.31 in 10.0 mi West 8.1 mph - N/A   Overcast
2:15 AM 26.6 °F 17.5 °F 14.0 °F 59% 30.31 in 10.0 mi West 9.2 mph - N/A   Overcast
2:16 AM 26.6 °F 17.5 °F 14.0 °F 59% 30.31 in 10.0 mi West 9.2 mph - N/A   Overcast
2:35 AM 26.6 °F 17.5 °F 14.0 °F 59% 30.31 in 10.0 mi West 9.2 mph - N/A   Overcast
2:40 AM 26.6 °F 17.5 °F 14.0 °F 59% 30.31 in 10.0 mi West 9.2 mph - N/A   Overcast
2:57 AM 26.6 °F 18.2 °F 14.0 °F 59% 30.31 in 10.0 mi West 8.1 mph - N/A   Overcast
3:15 AM 26.6 °F 17.5 °F 14.0 °F 59% 30.31 in 10.0 mi West 9.2 mph - N/A   Overcast
3:35 AM 26.6 °F 17.5 °F 14.0 °F 59% 30.30 in 10.0 mi West 9.2 mph - N/A   Overcast
3:55 AM 26.6 °F 17.5 °F 15.8 °F 64% 30.30 in 10.0 mi West 9.2 mph - N/A   Overcast
3:56 AM 26.6 °F 17.5 °F 15.8 °F 64% 30.30 in 10.0 mi West 9.2 mph - N/A   Overcast
4:18 AM 26.6 °F 18.2 °F 15.8 °F 64% 30.30 in 10.0 mi West 8.1 mph - N/A   Overcast
4:37 AM 26.6 °F 16.8 °F 15.8 °F 64% 30.30 in 10.0 mi West 10.4 mph - N/A   Overcast
4:56 AM 26.6 °F 17.5 °F 15.8 °F 64% 30.30 in 10.0 mi West 9.2 mph - N/A   Overcast
5:15 AM 24.8 °F 16.1 °F 15.8 °F 69% 30.30 in 10.0 mi West 8.1 mph - N/A   Overcast
5:16 AM 24.8 °F 16.1 °F 15.8 °F 69% 30.30 in 10.0 mi West 8.1 mph - N/A   Overcast
5:35 AM 26.6 °F 17.5 °F 15.8 °F 64% 30.30 in 10.0 mi West 9.2 mph - N/A   Overcast
5:58 AM 24.8 °F 13.4 °F 17.6 °F 74% 30.31 in 10.0 mi NW 12.7 mph - N/A   Overcast
6:15 AM 24.8 °F 12.9 °F 17.6 °F 74% 30.31 in 10.0 mi WNW 13.8 mph - N/A   Overcast
6:35 AM 24.8 °F 14.0 °F 15.8 °F 69% 30.31 in 10.0 mi WNW 11.5 mph - N/A   Overcast
6:36 AM 24.8 °F 14.6 °F 15.8 °F 69% 30.31 in 10.0 mi WNW 10.4 mph - N/A   Overcast
6:58 AM 23.0 °F 13.1 °F 15.8 °F 74% 30.30 in 10.0 mi WNW 9.2 mph - N/A   Overcast
7:17 AM 24.8 °F 16.1 °F 15.8 °F 69% 30.30 in 10.0 mi WNW 8.1 mph - N/A   Overcast
7:36 AM 23.0 °F 13.1 °F 15.8 °F 74% 30.31 in 10.0 mi WNW 9.2 mph - N/A   Mostly Cloudy
7:55 AM 21.2 °F 10.1 °F 15.8 °F 80% 30.31 in 10.0 mi WNW 10.4 mph - N/A   Mostly Cloudy
7:56 AM 21.2 °F 9.5 °F 15.8 °F 80% 30.31 in 10.0 mi WNW 11.5 mph - N/A   Mostly Cloudy
8:15 AM 21.2 °F 12.6 °F 15.8 °F 80% 30.32 in 10.0 mi WNW 6.9 mph - N/A   Scattered Clouds
8:20 AM 21.2 °F 13.6 °F 15.8 °F 80% 30.32 in 10.0 mi WNW 5.8 mph - N/A   Scattered Clouds
8:37 AM 19.4 °F 11.5 °F 15.8 °F 86% 30.32 in 10.0 mi WNW 5.8 mph - N/A   Clear
8:55 AM 21.2 °F 12.6 °F 17.6 °F 86% 30.32 in 10.0 mi West 6.9 mph - N/A   Mostly Cloudy
9:15 AM 23.0 °F 13.9 °F 17.6 °F 80% 30.32 in 10.0 mi WNW 8.1 mph - N/A   Mostly Cloudy
9:16 AM 23.0 °F 13.9 °F 17.6 °F 80% 30.31 in 10.0 mi WNW 8.1 mph - N/A   Mostly Cloudy
9:35 AM 24.8 °F 14.0 °F 15.8 °F 69% 30.31 in 10.0 mi WNW 11.5 mph - N/A   Scattered Clouds
9:59 AM 24.8 °F 13.4 °F 15.8 °F 69% 30.31 in 10.0 mi WNW 12.7 mph - N/A   Mostly Cloudy
10:17 AM 24.8 °F 16.1 °F 15.8 °F 69% 30.31 in 10.0 mi WNW 8.1 mph - N/A   Overcast
10:36 AM 24.8 °F 14.0 °F 15.8 °F 69% 30.31 in 10.0 mi West 11.5 mph - N/A Snow Light Snow
10:55 AM 26.6 °F 15.7 °F 15.8 °F 64% 30.31 in 10.0 mi WNW 12.7 mph 17.3 mph N/A   Mostly Cloudy
10:56 AM 26.6 °F 15.2 °F 15.8 °F 64% 30.31 in 10.0 mi WNW 13.8 mph 17.3 mph N/A   Mostly Cloudy
11:15 AM 24.8 °F 12.9 °F 15.8 °F 69% 30.31 in 10.0 mi NW 13.8 mph - N/A   Mostly Cloudy
11:20 AM 24.8 °F 14.0 °F 15.8 °F 69% 30.31 in 10.0 mi NW 11.5 mph - N/A   Mostly Cloudy
11:37 AM 26.6 °F 16.8 °F 15.8 °F 64% 30.31 in 10.0 mi West 10.4 mph - N/A   Overcast
11:55 AM 26.6 °F 16.8 °F 15.8 °F 64% 30.31 in 10.0 mi WNW 10.4 mph - N/A   Overcast
12:15 PM 26.6 °F 17.5 °F 15.8 °F 64% 30.31 in 10.0 mi WNW 9.2 mph - N/A   Overcast
12:35 PM 26.6 °F 18.2 °F 15.8 °F 64% 30.30 in 10.0 mi WNW 8.1 mph 17.3 mph N/A   Overcast
12:36 PM 26.6 °F 19.1 °F 15.8 °F 64% 30.30 in 10.0 mi West 6.9 mph 17.3 mph N/A   Overcast
1:17 PM 26.6 °F 16.8 °F 15.8 °F 64% 30.29 in 10.0 mi NW 10.4 mph - N/A   Overcast
1:36 PM 26.6 °F 16.2 °F 15.8 °F 64% 30.29 in 10.0 mi WNW 11.5 mph - N/A   Overcast
1:55 PM 26.6 °F 16.8 °F 15.8 °F 64% 30.28 in 10.0 mi NW 10.4 mph - N/A   Overcast
1:56 PM 26.6 °F 16.2 °F 15.8 °F 64% 30.29 in 10.0 mi WNW 11.5 mph - N/A   Overcast
2:15 PM 26.6 °F 17.5 °F 15.8 °F 64% 30.28 in 10.0 mi WNW 9.2 mph - N/A   Overcast
2:37 PM 26.6 °F 17.5 °F 15.8 °F 64% 30.27 in 10.0 mi WNW 9.2 mph - N/A   Overcast
2:55 PM 26.6 °F 20.0 °F 15.8 °F 64% 30.27 in 10.0 mi WNW 5.8 mph - N/A   Overcast
3:15 PM 26.6 °F 18.2 °F 15.8 °F 64% 30.26 in 10.0 mi WNW 8.1 mph - N/A   Overcast
3:16 PM 26.6 °F 18.2 °F 15.8 °F 64% 30.26 in 10.0 mi WNW 8.1 mph - N/A   Overcast
3:39 PM 26.6 °F 19.1 °F 15.8 °F 64% 30.26 in 10.0 mi West 6.9 mph - N/A   Overcast
3:57 PM 26.6 °F 18.2 °F 15.8 °F 64% 30.26 in 10.0 mi West 8.1 mph - N/A   Overcast
4:16 PM 26.6 °F 17.5 °F 15.8 °F 64% 30.26 in 10.0 mi WNW 9.2 mph - N/A   Overcast
4:35 PM 26.6 °F 19.1 °F 15.8 °F 64% 30.26 in 10.0 mi WNW 6.9 mph - N/A Snow Light Snow
4:36 PM 26.6 °F 19.1 °F 15.8 °F 64% 30.26 in 10.0 mi WNW 6.9 mph - N/A Snow Light Snow
4:55 PM 26.6 °F 17.5 °F 15.8 °F 64% 30.25 in 10.0 mi WNW 9.2 mph - N/A   Overcast
5:17 PM 26.6 °F 19.1 °F 15.8 °F 64% 30.25 in 10.0 mi WNW 6.9 mph - N/A   Overcast
5:35 PM 26.6 °F 20.0 °F 17.6 °F 69% 30.25 in 10.0 mi WNW 5.8 mph - N/A   Overcast
5:36 PM 26.6 °F 18.2 °F 17.6 °F 69% 30.25 in 10.0 mi WNW 8.1 mph - N/A   Overcast
5:55 PM 26.6 °F 19.1 °F 17.6 °F 69% 30.25 in 10.0 mi WNW 6.9 mph - N/A   Overcast
5:56 PM 26.6 °F 20.0 °F 17.6 °F 69% 30.25 in 10.0 mi WNW 5.8 mph - N/A   Overcast
6:15 PM 26.6 °F 20.0 °F 15.8 °F 64% 30.25 in 10.0 mi WNW 5.8 mph - N/A   Overcast
6:20 PM 26.6 °F 19.1 °F 17.6 °F 69% 30.25 in 10.0 mi NW 6.9 mph - N/A   Overcast
6:37 PM 26.6 °F 21.2 °F 17.6 °F 69% 30.25 in 10.0 mi NW 4.6 mph - N/A   Overcast
6:55 PM 26.6 °F 20.0 °F 17.6 °F 69% 30.25 in 10.0 mi NW 5.8 mph - N/A   Overcast
7:15 PM 26.6 °F 19.1 °F 17.6 °F 69% 30.24 in 10.0 mi NW 6.9 mph - N/A   Overcast
7:16 PM 26.6 °F 20.0 °F 17.6 °F 69% 30.24 in 10.0 mi NW 5.8 mph - N/A   Overcast
7:35 PM 26.6 °F 20.0 °F 17.6 °F 69% 30.24 in 10.0 mi NW 5.8 mph - N/A   Overcast
7:36 PM 26.6 °F 20.0 °F 17.6 °F 69% 30.24 in 10.0 mi NW 5.8 mph - N/A   Overcast
7:58 PM 26.6 °F 21.2 °F 17.6 °F 69% 30.23 in 10.0 mi NNW 4.6 mph - N/A   Overcast
8:17 PM 26.6 °F 20.0 °F 17.6 °F 69% 30.23 in 10.0 mi NNW 5.8 mph - N/A   Overcast
8:35 PM 24.8 °F 16.9 °F 17.6 °F 74% 30.23 in 10.0 mi NNW 6.9 mph - N/A   Overcast
8:55 PM 24.8 °F 17.9 °F 17.6 °F 74% 30.22 in 10.0 mi NNW 5.8 mph - N/A   Overcast
8:56 PM 24.8 °F 17.9 °F 17.6 °F 74% 30.22 in 10.0 mi NNW 5.8 mph - N/A   Overcast
9:15 PM 24.8 °F 19.1 °F 17.6 °F 74% 30.22 in 10.0 mi NNW 4.6 mph - N/A   Overcast
9:20 PM 24.8 °F 19.1 °F 17.6 °F 74% 30.22 in 10.0 mi North 4.6 mph - N/A   Overcast
9:38 PM 24.8 °F 19.1 °F 17.6 °F 74% 30.22 in 10.0 mi NW 4.6 mph - N/A   Overcast
9:55 PM 24.8 °F 17.9 °F 15.8 °F 69% 30.22 in 10.0 mi NNW 5.8 mph - N/A   Overcast
10:15 PM 24.8 °F 17.9 °F 15.8 °F 69% 30.22 in 10.0 mi NNW 5.8 mph - N/A   Overcast
10:16 PM 24.8 °F 17.9 °F 15.8 °F 69% 30.22 in 10.0 mi NNW 5.8 mph - N/A   Overcast
10:58 PM 24.8 °F 17.9 °F 15.8 °F 69% 30.21 in 10.0 mi NNW 5.8 mph - N/A   Overcast
11:16 PM 24.8 °F 17.9 °F 15.8 °F 69% 30.21 in 10.0 mi NNW 5.8 mph - N/A   Overcast
11:35 PM 24.8 °F 20.5 °F 15.8 °F 69% 30.20 in 10.0 mi NNW 3.5 mph - N/A   Overcast
11:36 PM 24.8 °F 20.5 °F 15.8 °F 69% 30.20 in 10.0 mi NNW 3.5 mph - N/A   Overcast
11:55 PM 24.8 °F 17.9 °F 17.6 °F 74% 30.20 in 10.0 mi NNW 5.8 mph - N/A   Overcast
11:56 PM 24.8 °F 19.1 °F 15.8 °F 69% 30.20 in 10.0 mi North 4.6 mph - N/A   Overcast